RH
88 89 88 88 88 89 89 87 89 89 91 93 95 96 89 83 82 87 87 85 87 85 87 86 81 77 78 76 52 28 16 10 9 18 37 43 37 32 30 39 42 34 32 31 29 36 40 28 25 31 27 24 21 18 19 18 14 12 11 11 11 9 9 8 8 7 7 7 6 7 7 7 7 7 7 9 8 8 19 27 29 29 29 30 36 67 68 47
86 88 87 89 90 92 92 90 90 88 88 89 90 94 96 94 88 89 89 86 89 90 91 90 85 72 69 71 51 27 17 16 19 30 54 61 46 30 29 43 47 41 35 36 46 60 61 36 26 31 26 20 18 18 18 17 14 11 9 10 10 9 8 7 7 7 7 7 7 6 7 8 6 7 7 8 10 12 18 23 29 34 36 32 34 69 72 47
80 85 86 87 87 87 87 87 84 82 84 80 78 81 86 93 92 89 86 84 86 89 92 93 94 75 61 68 50 23 23 31 25 44 74 68 54 45 43 52 50 50 46 44 60 77 68 37 27 30 23 18 16 16 16 15 14 10 9 10 9 7 7 7 7 6 7 7 6 6 7 7 7 7 7 8 8 10 14 15 24 25 32 47 49 70 76 61
74 80 81 80 81 82 82 81 77 74 76 72 71 76 79 82 83 83 81 82 83 86 90 91 97 87 71 63 44 34 41 38 29 58 82 63 57 52 47 54 48 56 65 59 68 78 67 42 31 30 22 17 15 15 15 15 14 10 9 9 7 7 7 7 7 6 7 7 6 7 6 6 7 7 6 7 5 7 10 10 18 13 19 48 52 60 71 72
74 77 78 77 77 81 80 78 76 75 76 77 79 79 81 81 76 74 74 77 81 84 87 89 91 91 85 62 47 61 53 31 40 73 80 56 57 57 47 52 45 53 68 69 75 75 61 42 32 29 23 17 14 14 14 14 14 11 9 9 7 7 7 7 7 7 7 7 7 7 6 6 7 7 6 7 6 6 7 9 13 9 16 39 37 40 60 77
73 76 81 81 80 83 83 84 86 85 85 87 89 86 87 90 85 82 78 75 78 80 82 86 87 89 89 67 62 81 55 25 44 74 77 48 48 62 53 49 48 51 64 73 75 66 51 39 32 28 22 17 13 13 13 13 14 12 10 10 9 8 8 7 7 7 7 7 7 6 6 7 6 7 7 6 7 5 9 14 13 14 27 42 34 31 55 77
77 79 84 86 86 87 88 90 91 91 92 92 93 92 92 92 92 93 85 76 77 81 85 87 87 87 87 80 77 79 59 37 36 51 59 37 37 65 59 49 52 52 62 76 73 60 46 35 31 26 20 17 13 12 12 11 14 13 11 10 10 10 9 8 8 7 7 7 7 6 6 6 6 7 6 6 7 5 17 23 17 24 37 47 42 39 56 71
84 82 82 87 89 89 90 89 89 91 92 93 94 95 95 94 92 89 77 69 72 75 82 90 90 88 87 89 81 66 58 51 39 34 33 20 25 54 62 54 53 53 58 67 69 61 46 33 30 26 18 16 13 13 11 11 14 13 11 9 10 12 10 8 9 8 7 7 6 7 6 6 7 6 7 8 5 8 24 28 24 32 42 48 52 55 65 77
87 84 84 89 90 90 88 85 89 92 91 90 92 95 95 91 85 79 66 60 65 66 75 88 91 93 93 92 81 62 52 43 36 31 26 24 26 39 55 53 48 54 56 58 63 60 49 37 30 24 19 16 14 12 12 13 12 12 11 9 12 13 10 9 9 9 7 7 7 7 7 6 7 8 10 7 7 19 29 28 33 42 47 52 59 70 79 85
87 88 88 88 88 92 88 86 90 88 87 87 87 91 91 84 76 72 64 58 61 62 69 83 87 92 93 89 80 66 51 37 32 29 25 29 33 37 48 45 38 46 52 53 56 55 49 40 32 29 25 20 16 13 14 13 10 12 12 10 14 13 11 10 9 9 8 8 8 7 7 6 8 9 9 6 13 27 23 24 38 45 50 55 63 79 86 87
89 88 87 87 88 89 85 85 89 86 85 86 87 89 89 83 76 72 67 63 65 66 67 73 82 91 94 87 79 67 49 36 38 38 31 27 29 34 41 39 30 35 49 53 50 52 49 45 45 39 28 23 19 15 14 13 11 13 12 10 13 13 12 11 9 10 9 8 10 8 7 7 8 8 7 8 18 23 16 22 37 43 51 60 70 81 85 87
90 88 87 87 88 88 85 87 91 88 83 83 85 87 91 91 84 71 62 60 63 69 67 61 74 94 98 88 78 69 53 43 46 42 34 31 30 29 30 30 24 23 42 52 47 48 49 50 52 42 29 23 18 16 15 15 14 13 13 12 13 13 12 12 11 10 9 9 10 9 9 8 8 9 7 8 17 19 15 21 33 43 52 61 73 80 81 84
90 90 88 86 88 87 84 88 92 89 83 83 84 86 88 83 75 61 52 52 47 52 54 48 71 97 97 85 75 69 59 51 51 45 35 31 33 34 30 28 24 18 30 49 48 45 49 53 53 43 34 27 17 18 18 16 16 13 12 12 12 13 12 13 13 11 10 10 10 10 11 9 7 8 8 8 15 20 17 17 28 45 54 61 73 78 80 84
91 92 89 86 86 84 84 88 90 92 89 84 86 84 72 58 51 45 43 41 35 42 44 43 71 94 89 79 72 67 59 47 43 47 45 34 36 46 45 41 40 26 22 43 49 43 48 52 54 47 39 33 23 22 21 16 16 13 12 12 11 14 13 11 12 12 11 10 10 11 11 8 5 7 8 7 13 19 18 15 22 43 56 62 72 78 81 84
93 92 93 89 85 84 90 91 89 91 89 84 81 70 52 43 41 39 39 37 37 43 45 55 79 90 79 68 67 63 53 44 35 40 46 44 48 53 50 48 53 42 26 38 48 44 48 52 52 46 37 34 29 25 20 16 17 13 14 15 12 14 12 9 10 12 12 10 10 11 11 8 5 6 7 9 17 21 20 15 18 40 59 64 70 78 80 81
96 95 95 92 87 87 90 92 91 86 84 87 76 53 41 41 42 41 38 37 40 45 57 78 86 84 73 59 61 57 45 46 46 46 50 53 58 55 48 47 53 51 35 37 46 47 51 50 46 40 33 30 27 23 19 18 19 14 14 15 12 12 11 11 11 10 11 11 11 11 9 8 6 4 9 18 27 27 20 15 20 40 59 65 69 78 80 79
99 99 95 90 89 90 90 94 93 80 83 91 69 43 39 42 43 43 42 45 55 61 73 82 78 79 74 60 58 48 38 46 49 48 52 56 58 52 49 47 50 52 41 40 48 50 51 47 40 37 33 29 24 21 21 22 22 17 14 13 12 11 10 12 12 9 9 10 12 12 8 8 7 5 13 25 31 30 21 17 25 38 52 63 68 76 80 78
95 92 90 91 90 90 91 95 91 81 90 92 62 39 39 43 45 48 58 71 81 84 84 86 85 76 60 55 58 47 40 46 46 45 48 51 50 48 50 49 49 51 44 45 50 48 47 41 35 33 33 32 25 21 23 21 19 18 17 15 12 10 9 11 12 10 9 10 11 12 11 9 8 8 15 26 31 28 21 18 27 34 40 58 70 75 78 77
91 85 87 95 93 88 90 95 88 85 94 88 63 47 45 57 65 70 84 88 81 72 65 72 81 62 38 40 48 46 45 43 42 45 43 43 46 50 56 53 50 52 45 43 46 45 42 36 34 34 34 32 26 22 20 17 15 15 16 15 11 11 11 9 10 10 8 9 10 11 12 9 8 9 14 24 29 29 23 21 31 35 36 55 73 75 75 77
96 91 91 97 98 93 94 98 92 93 97 89 84 74 57 61 62 62 79 82 70 60 49 51 59 50 41 42 40 41 46 43 40 40 37 38 46 50 55 53 50 49 41 37 41 42 39 38 37 34 30 26 24 22 18 16 16 14 14 13 11 12 11 8 9 10 8 9 9 9 11 10 9 9 13 21 26 29 26 24 35 45 45 55 68 72 74 76
98 97 97 97 99 98 98 100 98 98 93 87 97 89 64 60 56 54 68 69 63 63 58 55 54 50 49 48 44 41 44 48 45 42 39 38 43 45 46 48 44 41 38 32 36 39 40 44 38 29 25 21 23 23 18 18 17 15 15 12 12 12 10 8 8 9 9 9 9 8 9 10 9 9 13 21 25 29 28 26 39 52 53 54 58 64 73 75
96 98 100 100 98 98 99 100 99 96 91 90 94 82 67 70 71 75 81 71 63 67 66 66 63 58 57 55 54 50 47 50 47 45 45 43 42 37 36 42 39 35 34 30 36 44 46 46 34 24 23 20 22 21 19 20 17 16 16 12 12 10 8 9 7 8 9 9 9 9 8 9 9 8 12 21 27 32 34 34 41 49 52 54 55 61 72 75
92 93 97 101 98 99 101 97 94 92 94 96 89 75 72 77 80 88 92 80 70 66 63 66 65 60 60 57 57 55 50 48 46 43 46 46 41 34 32 38 38 32 30 30 39 49 49 42 30 22 22 21 22 21 21 22 19 16 15 12 12 9 9 10 8 8 9 9 9 9 9 9 9 9 10 19 27 31 38 44 48 48 49 54 58 65 73 72
90 92 97 100 99 101 99 90 89 94 99 101 90 80 80 83 86 91 92 80 64 57 59 62 62 60 57 56 58 58 54 53 48 40 43 45 38 32 30 33 39 34 29 29 33 42 41 32 26 24 23 23 24 24 24 24 21 17 14 12 11 9 9 9 8 8 9 10 8 9 13 11 10 10 8 16 26 29 36 46 51 51 52 56 61 68 72 70
88 95 99 100 100 101 97 89 92 99 101 99 88 83 88 91 91 91 90 79 59 52 57 59 59 60 60 60 62 58 54 55 50 42 43 42 33 27 25 31 41 37 29 27 29 35 35 28 27 28 27 25 24 23 22 20 20 19 16 13 10 10 9 8 8 9 11 13 10 11 16 15 11 11 12 20 26 27 34 42 46 51 56 60 62 67 70 71
88 94 99 100 100 99 95 93 98 102 100 96 88 87 97 96 88 88 88 80 62 46 48 56 55 55 57 60 62 56 50 47 46 46 45 41 34 27 24 29 40 38 27 26 29 31 31 29 29 29 29 26 23 21 18 17 20 20 17 14 11 10 9 8 9 10 12 13 10 10 14 14 12 13 17 23 25 27 35 42 43 47 54 59 62 65 67 71
90 94 96 97 99 100 99 98 99 101 97 93 91 95 102 93 82 86 84 74 62 47 47 54 53 52 52 54 58 53 44 38 39 44 43 40 37 32 30 31 38 40 28 28 36 33 32 35 32 30 29 26 23 21 17 15 18 19 15 14 13 10 9 9 9 10 10 10 10 8 10 13 13 15 17 20 23 25 32 40 42 46 53 57 60 63 66 70
92 90 88 90 92 93 97 100 98 100 99 95 96 99 97 90 84 84 81 74 63 52 53 58 61 65 59 54 56 48 36 33 36 41 41 40 38 35 35 34 35 36 29 32 40 35 33 38 34 31 30 26 23 20 16 15 16 16 14 13 13 11 9 8 8 10 9 9 13 10 9 12 13 16 18 20 26 24 23 35 43 45 51 56 59 64 66 69
85 80 76 76 74 78 90 99 98 99 99 97 101 98 89 91 89 76 74 75 62 54 63 72 77 78 67 56 55 48 39 36 36 39 40 39 39 38 36 34 32 32 31 32 35 33 33 35 30 28 29 26 21 17 15 15 14 13 14 12 11 10 9 9 8 9 9 13 18 13 10 12 12 16 20 22 27 23 19 29 39 40 46 54 60 65 66 67
75 71 69 67 69 79 89 95 98 99 99 99 101 96 90 92 88 79 79 74 61 62 74 81 82 79 71 60 53 49 43 37 34 37 38 35 39 42 37 35 34 32 33 32 33 35 32 30 28 27 27 23 19 17 15 14 12 12 14 13 12 12 10 11 10 9 13 19 18 12 9 10 12 16 21 25 25 19 18 25 32 33 39 49 58 64 65 66
69 69 68 67 70 77 84 91 95 95 98 100 97 97 95 83 75 81 82 67 63 73 75 75 81 82 76 65 59 58 50 39 34 35 34 31 37 41 37 41 43 39 40 37 35 37 32 32 31 26 26 23 19 19 16 13 11 12 14 13 15 16 14 15 14 13 19 22 16 9 8 10 12 13 16 23 22 16 17 22 26 29 33 42 55 63 64 65
73 74 70 68 67 66 76 88 86 86 94 98 98 100 92 77 73 76 69 60 65 74 73 78 86 85 78 70 64 62 54 41 34 33 31 30 36 36 34 41 47 49 50 41 39 44 37 32 30 27 26 23 21 22 19 14 12 13 14 15 18 21 22 23 21 20 22 20 13 8 9 12 12 9 12 21 22 16 17 18 19 24 30 38 49 60 65 66
77 79 75 73 70 67 75 83 82 85 92 97 101 95 83 81 77 63 58 66 71 71 77 87 87 80 79 79 68 59 55 42 33 33 29 28 33 31 28 32 34 41 44 37 43 51 45 35 30 29 29 24 22 22 21 17 13 15 15 17 20 22 30 31 24 22 21 17 13 8 12 16 12 8 10 19 21 15 15 15 15 22 29 36 45 56 65 68
78 79 77 75 75 73 76 83 88 93 96 99 98 87 84 86 71 57 63 70 70 74 81 85 85 78 74 76 67 53 52 45 32 32 30 30 37 32 28 32 29 31 33 35 44 49 51 48 37 31 29 25 22 19 18 16 13 14 13 14 18 18 25 28 21 20 20 18 15 12 16 19 14 11 8 13 16 13 13 13 14 19 22 32 45 55 63 68
77 76 77 81 85 82 78 81 88 95 101 100 89 81 85 82 69 68 76 75 77 86 85 78 80 75 61 64 62 46 49 50 35 32 32 32 40 35 29 33 32 30 33 39 43 40 43 43 30 26 25 22 23 17 13 14 13 14 12 14 18 15 16 21 21 20 17 18 21 19 19 15 13 16 12 11 13 13 13 13 16 23 26 37 51 57 62 67
77 76 79 87 92 86 79 79 84 94 101 96 88 81 74 71 71 76 83 86 90 96 92 79 73 67 53 53 56 44 48 53 38 34 35 30 34 33 28 30 29 29 32 36 39 38 39 34 24 25 25 20 22 18 13 14 14 13 14 16 16 12 12 19 24 22 18 21 25 22 20 16 15 19 18 15 13 16 23 24 25 34 41 48 55 57 61 65
74 76 78 83 87 83 79 80 86 97 100 95 96 83 64 65 72 77 88 92 88 93 96 82 72 70 55 47 51 46 43 45 40 39 38 33 33 31 28 29 25 26 29 29 32 32 32 34 27 25 26 22 21 18 13 12 12 13 15 15 13 12 14 17 21 23 22 24 25 23 21 19 18 20 22 18 14 20 32 34 31 37 43 47 52 57 62 65
73 78 79 80 86 83 78 82 91 99 98 93 94 79 63 68 72 75 92 96 91 95 93 79 74 74 59 46 47 45 40 42 44 43 39 36 37 31 28 31 27 25 25 26 31 28 26 34 31 22 24 23 19 20 19 16 12 12 13 11 14 20 20 18 21 26 25 23 25 25 21 17 15 19 22 19 16 20 26 28 30 36 41 42 46 54 61 66
84 81 74 74 88 93 83 86 97 99 94 88 84 72 62 68 67 66 82 94 96 97 89 78 73 68 62 55 46 39 39 41 39 41 40 39 38 30 26 31 29 24 23 24 30 28 26 35 34 23 21 21 20 23 25 22 16 13 13 11 13 18 18 17 20 20 20 20 23 25 22 16 12 15 18 16 15 17 20 22 27 33 37 38 44 54 62 67
89 74 66 69 87 96 89 93 99 92 85 79 75 73 71 72 70 63 74 92 95 90 89 84 74 67 67 66 55 41 37 37 35 37 38 35 36 32 26 29 29 24 23 23 26 28 30 36 35 25 20 23 25 24 22 21 19 17 18 15 15 17 15 16 17 14 14 17 19 24 25 17 11 12 14 15 14 15 19 24 27 28 32 38 48 59 65 69
85 63 63 68 76 88 95 95 86 75 74 73 72 81 82 76 73 65 70 92 96 89 90 90 83 75 68 66 62 49 39 38 37 38 36 31 32 33 28 28 28 24 26 27 26 29 33 35 33 28 25 25 24 21 17 16 15 16 17 15 15 17 17 20 22 16 12 14 16 22 23 15 11 10 11 13 13 14 17 23 27 28 31 40 53 61 66 69
76 55 63 70 69 85 97 81 61 61 72 75 79 90 88 79 76 65 62 84 98 94 94 95 89 80 73 68 62 52 45 42 38 38 38 32 31 30 26 28 28 23 26 30 26 26 29 32 30 27 26 23 20 18 17 14 13 13 13 12 13 16 17 20 23 18 15 15 15 16 16 16 21 21 16 15 14 14 17 19 23 31 38 47 57 62 65 70
70 61 70 72 67 81 89 69 55 62 67 70 79 86 82 78 76 66 57 66 85 95 98 97 91 83 78 72 64 56 51 47 42 41 40 34 31 28 25 27 28 21 24 29 26 25 29 31 32 29 24 19 17 17 16 14 13 13 13 11 10 14 15 15 17 17 17 15 15 17 15 20 36 41 35 31 26 24 29 30 32 41 51 56 61 65 69 73
75 73 76 73 70 75 76 69 73 78 70 70 79 79 74 73 72 70 63 59 70 89 99 98 91 82 75 72 69 59 52 54 49 41 39 35 30 28 27 27 26 21 24 29 27 26 31 31 31 33 33 29 27 26 23 18 15 14 14 12 10 12 13 14 16 18 18 15 14 16 13 21 42 47 37 34 30 27 34 41 45 53 58 61 64 67 70 71
74 69 71 71 73 72 67 69 80 84 78 79 83 77 72 70 65 64 64 60 60 72 89 96 88 76 73 82 84 67 57 65 60 48 46 39 27 26 27 26 25 22 23 26 24 27 34 34 29 32 39 41 39 36 30 23 19 16 14 13 12 12 12 16 18 18 19 19 16 14 14 24 42 41 32 32 30 28 36 43 49 55 58 61 63 65 67 69
66 59 62 65 68 67 64 67 75 79 81 84 84 78 77 78 68 58 59 63 60 60 73 86 84 75 73 84 92 81 65 60 58 59 58 43 29 26 24 24 24 21 23 28 26 29 34 35 30 28 30 31 29 26 21 20 22 20 16 14 12 12 12 16 19 17 18 20 17 14 15 22 29 28 31 38 37 38 46 48 51 55 57 60 63 64 66 68
63 63 72 77 75 65 57 59 67 74 75 78 82 81 84 85 73 63 62 64 64 62 66 76 83 86 85 81 86 87 73 59 59 68 62 41 28 24 22 24 24 21 27 29 27 32 36 35 33 29 24 20 17 17 16 18 20 19 16 15 13 12 13 17 19 18 18 18 17 19 20 20 20 21 31 43 47 50 53 50 52 57 59 61 64 65 66 69
64 70 81 91 84 66 61 64 70 73 70 72 80 81 84 86 82 80 77 70 67 66 71 82 86 90 92 82 77 83 81 73 71 70 58 41 31 27 24 24 22 23 29 28 27 33 37 34 31 30 27 19 14 15 15 17 18 16 16 16 14 13 14 18 19 17 18 20 21 28 29 21 20 24 32 43 50 54 55 53 55 60 61 61 64 66 66 69
79 79 78 88 86 73 73 74 72 73 69 72 79 78 81 87 87 86 82 79 78 72 78 93 91 87 91 81 70 78 88 88 82 73 63 50 34 27 30 30 25 24 28 29 28 30 33 33 30 28 28 23 18 16 15 17 17 17 16 15 14 14 13 17 17 16 20 21 21 27 27 23 30 38 41 50 56 55 56 57 57 59 61 61 63 65 66 68
95 92 84 91 89 73 70 68 64 67 66 69 77 78 79 86 88 89 86 86 90 81 80 96 97 92 95 85 75 83 90 90 87 79 73 61 38 29 38 43 35 29 29 32 32 31 34 35 31 29 28 26 22 17 15 16 17 17 17 13 13 15 15 16 17 18 22 22 20 22 20 24 44 53 53 59 62 58 58 58 56 58 60 61 63 64 65 67
100 99 96 100 89 66 59 58 57 61 61 67 77 78 78 81 84 90 89 82 86 86 84 95 100 96 94 85 79 81 81 82 84 78 74 69 58 53 56 53 45 39 34 33 34 37 37 34 33 34 31 27 24 20 17 17 16 19 20 15 14 16 16 17 17 17 20 21 19 19 16 26 49 59 59 63 62 58 58 59 58 59 60 61 63 65 65 67
101 98 98 103 90 65 55 53 52 56 59 65 73 73 75 76 74 83 91 81 76 80 82 87 93 96 93 85 78 78 79 81 81 78 76 74 71 71 70 65 59 53 46 40 38 39 38 35 33 33 30 27 25 22 20 20 21 23 21 17 17 17 15 16 15 14 18 21 18 18 24 41 56 58 59 63 62 58 58 59 60 60 60 60 61 63 67 69
Wind_Speed
14 14 15 16 16 15 15 15 14 15 15 16 16 16 16 15 15 14 14 15 15 15 15 15 15 16 16 18 19 19 20 19 19 18 15 16 16 14 13 14 17 17 16 17 16 15 13 12 12 11 11 12 14 16 17 17 17 15 10 12 14 14 16 16 16 15 13 14 12 12 15 13 12 13 11 10 11 13 9 8 9 10 12 13 12 7 10 14
13 13 14 14 15 15 15 16 15 15 15 16 16 16 16 16 16 15 15 16 15 15 15 16 16 16 17 19 19 20 20 18 19 15 10 14 14 9 11 13 15 15 16 16 15 14 13 12 11 11 13 14 14 16 17 18 19 16 10 12 15 15 16 18 19 18 16 16 14 14 15 14 14 14 13 11 12 13 11 10 10 10 12 14 14 9 11 16
13 13 13 14 14 14 15 15 15 15 15 16 15 15 15 16 16 16 16 16 16 16 16 16 16 17 18 19 21 21 19 20 18 7 5 10 10 5 7 6 9 11 14 16 14 13 14 12 10 13 15 15 15 17 17 18 19 19 14 12 15 17 18 21 23 22 19 17 17 17 16 16 16 16 14 13 15 14 13 12 11 12 12 11 12 11 12 14
13 13 14 14 14 14 15 15 15 15 15 15 15 15 15 15 16 16 16 16 16 16 16 16 16 17 17 20 23 21 19 19 11 6 3 5 7 6 5 3 6 7 9 13 13 13 14 13 11 14 16 15 17 18 17 18 16 16 17 13 14 16 18 22 23 22 20 18 18 19 18 16 16 17 17 15 15 13 15 17 15 13 11 12 13 13 13 13
14 13 13 14 14 14 15 14 15 15 15 15 15 14 15 15 15 15 15 15 16 16 16 16 16 17 17 20 21 18 16 11 2 7 3 4 6 8 7 5 6 7 8 8 11 12 13 15 14 15 16 14 16 16 17 22 18 13 17 18 17 15 14 18 20 20 19 17 19 21 19 16 15 17 19 19 15 12 13 14 14 13 9 13 13 12 14 15
14 13 14 14 14 15 15 15 16 16 16 16 15 15 15 15 16 15 15 15 15 16 16 16 17 17 18 20 18 14 10 6 1 3 9 10 10 10 10 6 6 8 8 5 9 11 13 17 17 17 17 13 15 15 16 23 20 13 14 19 21 16 12 14 17 19 19 18 19 20 20 18 17 17 20 22 20 16 9 3 8 9 8 12 12 13 15 17
15 14 14 15 15 15 16 17 18 18 18 16 16 16 16 17 16 16 16 16 15 15 15 15 16 16 18 18 15 11 11 14 10 10 16 15 11 10 11 8 7 9 7 4 8 11 14 19 21 19 16 13 16 17 18 22 22 16 13 16 19 16 14 13 14 17 19 19 20 21 21 18 18 17 17 21 22 18 6 4 8 7 9 13 13 15 16 17
16 15 15 15 16 17 17 18 19 19 18 17 17 17 17 18 17 18 18 17 16 16 15 14 14 16 17 15 12 12 15 18 15 15 19 18 14 14 13 9 10 8 5 4 7 10 13 19 22 20 15 14 16 17 18 18 19 19 15 14 16 16 17 14 13 16 18 19 18 18 18 19 21 18 15 18 20 17 8 7 10 10 11 14 14 16 16 17
17 17 17 17 18 18 18 19 19 19 18 17 17 18 18 18 19 19 19 18 17 17 16 14 14 15 15 12 12 13 14 14 13 13 15 16 16 15 12 9 11 8 6 6 6 9 12 16 21 20 14 14 15 16 18 16 13 17 20 16 12 14 17 16 15 16 18 18 16 16 18 20 19 14 13 18 17 13 11 10 11 11 12 13 15 16 16 17
18 18 18 18 19 19 20 19 19 19 19 18 18 19 19 19 19 19 19 19 19 19 17 15 14 14 13 12 13 11 10 11 12 11 11 11 10 11 11 11 12 11 8 8 7 10 13 13 16 17 13 12 14 15 19 17 9 11 21 20 12 13 17 18 17 18 18 18 17 17 18 18 16 12 12 17 16 13 13 13 12 12 13 14 14 16 15 15
18 18 19 19 19 20 20 19 19 20 20 20 20 21 21 20 20 19 19 19 20 20 18 15 14 14 12 13 16 13 11 12 13 13 14 15 14 12 13 15 15 13 11 10 9 10 13 11 9 10 10 10 13 14 17 19 10 8 17 18 15 14 16 19 19 19 17 15 17 17 16 18 18 16 14 15 15 15 16 14 14 13 13 13 14 15 14 14
19 19 20 19 20 21 21 20 20 20 21 21 21 21 21 21 20 20 20 21 21 19 18 17 13 12 12 18 25 23 19 20 19 19 18 19 21 20 20 22 21 17 13 12 11 9 12 12 9 11 8 5 12 11 12 18 12 9 13 14 15 15 15 19 19 20 18 13 16 15 13 18 19 17 17 17 15 17 18 15 14 14 12 13 14 14 14 14
19 20 20 20 20 21 21 20 21 21 22 23 23 23 22 22 21 20 20 21 21 19 20 18 14 12 14 22 27 24 25 27 25 25 23 21 23 23 23 24 24 21 16 15 13 9 10 10 10 15 10 7 11 5 4 15 14 10 12 10 12 13 14 18 18 20 20 15 17 15 11 16 18 19 21 21 19 17 18 18 16 14 13 13 14 14 14 15
18 19 20 21 21 21 21 21 22 22 23 23 24 24 23 22 20 19 19 20 21 20 19 18 14 12 18 26 23 22 27 27 24 25 22 17 17 17 16 17 19 20 19 19 15 10 11 10 10 14 12 11 8 1 4 13 13 11 11 10 10 10 12 19 20 19 19 17 21 18 12 14 16 20 24 24 23 20 19 20 18 16 14 14 14 15 15 15
19 19 20 21 21 21 21 22 22 21 23 24 25 25 23 21 18 17 18 19 18 17 16 14 12 11 19 26 20 19 23 21 20 18 13 11 12 12 10 10 12 15 19 20 15 11 11 12 13 13 14 14 8 5 9 9 9 11 11 11 11 10 9 18 23 21 18 16 22 20 12 12 15 17 23 24 23 22 21 21 20 17 15 15 15 15 15 15
19 19 21 21 22 21 21 22 22 22 23 24 26 25 21 19 18 18 18 18 15 13 12 9 10 13 16 17 13 15 17 13 13 10 6 9 10 9 9 9 10 11 17 19 14 11 10 14 17 16 15 13 9 9 10 8 10 11 12 12 13 13 9 12 20 24 21 16 20 22 12 9 13 14 20 23 22 22 21 21 21 19 17 16 15 15 15 15
19 20 21 22 21 21 21 23 23 22 22 25 27 23 19 17 17 18 17 14 12 9 8 8 8 12 16 14 11 11 9 8 8 6 6 7 8 9 10 11 10 10 15 17 14 13 13 16 16 14 13 12 10 10 10 11 12 10 12 12 13 17 13 10 16 22 24 18 17 20 15 10 10 11 19 23 22 23 22 21 21 20 18 17 15 14 15 15
20 20 21 22 22 21 21 23 24 21 22 25 25 20 18 16 15 15 12 7 4 3 6 8 7 7 13 14 12 9 5 7 6 5 8 6 7 10 10 11 10 11 16 15 16 17 16 17 15 11 10 11 12 13 13 14 14 14 14 11 12 16 16 13 12 17 24 22 18 18 18 17 10 10 17 22 23 23 22 21 21 21 19 17 15 14 15 15
21 20 21 22 22 20 20 23 24 22 23 24 21 19 16 13 12 9 5 5 5 5 5 8 13 9 11 9 10 7 6 8 7 7 10 9 7 8 9 10 10 14 18 14 16 20 17 14 14 12 11 15 16 17 16 10 11 16 16 14 13 12 15 14 11 16 23 21 20 19 17 20 17 12 15 21 24 23 23 22 19 19 18 15 14 14 14 15
21 21 20 21 22 21 20 22 23 22 24 23 19 17 13 9 9 4 4 9 15 16 16 15 18 20 20 15 13 9 9 12 12 11 11 10 9 8 9 11 13 15 16 13 14 20 19 13 14 15 14 19 19 19 19 6 7 14 16 15 15 12 13 16 13 16 21 18 18 22 19 20 22 16 14 19 22 21 22 22 19 17 18 16 14 14 14 14
21 21 20 21 22 21 21 22 23 22 23 20 14 12 9 9 8 7 10 14 19 21 24 24 23 25 24 20 17 13 12 13 14 13 11 11 11 10 10 13 14 12 15 17 15 18 18 13 16 18 16 19 19 19 18 8 7 13 14 13 14 12 11 16 15 15 18 15 14 21 21 20 22 18 15 18 19 19 20 21 20 19 18 17 16 15 14 13
20 20 20 22 21 20 22 23 23 23 20 13 8 8 9 10 9 9 13 15 18 21 25 26 24 25 23 20 18 16 15 15 14 13 11 12 13 11 11 14 14 11 14 18 14 14 14 14 19 20 15 16 18 20 19 11 9 11 11 12 12 12 11 13 16 15 15 12 11 18 19 17 20 20 17 17 16 18 21 21 20 20 19 18 18 16 14 14
21 20 19 20 21 22 22 24 24 21 13 6 6 10 11 10 8 8 11 15 20 21 20 21 20 21 19 16 14 15 18 17 14 13 13 14 16 16 13 12 13 14 14 17 15 13 13 14 19 19 16 16 17 20 20 13 9 9 10 11 10 13 13 10 14 16 14 11 10 14 15 13 16 18 17 18 19 18 19 20 19 19 19 18 17 15 15 16
21 21 19 19 21 22 22 24 21 12 5 6 9 11 10 7 6 8 11 12 15 14 11 12 13 14 12 9 9 13 17 15 11 10 12 17 18 17 15 13 13 13 14 19 21 17 13 13 17 19 16 17 17 18 20 13 8 10 11 11 11 14 16 10 12 15 13 12 12 11 11 10 14 17 16 17 19 18 18 19 19 18 17 16 16 14 15 17
21 21 20 20 20 22 23 21 13 5 6 10 11 8 5 4 4 6 8 9 10 7 4 6 7 7 6 6 7 10 12 13 14 11 11 17 19 15 14 14 12 12 16 22 21 17 14 13 16 18 16 18 18 15 19 16 9 11 12 12 12 15 17 13 14 15 11 11 13 12 10 9 13 18 16 15 16 16 16 17 18 19 18 16 15 16 17 17
22 21 21 20 20 22 21 14 7 7 11 10 6 4 3 3 5 6 5 5 6 1 2 3 3 2 4 6 7 9 8 9 14 15 13 15 18 15 12 12 10 12 16 17 14 10 11 13 15 17 18 19 17 14 18 19 11 9 12 13 11 14 18 14 15 15 10 9 14 15 11 7 11 16 17 16 17 18 16 16 17 18 18 18 17 18 19 19
23 22 22 21 20 19 17 12 11 12 11 6 2 2 3 3 5 6 4 5 4 1 1 2 2 2 3 4 8 8 3 1 5 11 16 17 18 16 12 10 10 10 11 11 9 8 10 14 15 17 19 17 14 12 17 21 13 7 13 16 12 11 16 16 14 13 9 7 12 17 14 8 8 13 18 19 19 20 20 16 16 17 18 20 20 20 20 19
24 24 24 23 21 18 15 16 15 11 8 5 3 3 3 4 5 4 4 5 2 1 0 1 2 4 4 4 10 10 4 2 2 5 14 18 17 16 13 12 11 10 11 11 9 10 12 15 17 19 17 14 12 11 16 21 15 6 12 18 15 12 14 14 12 10 9 9 10 16 17 10 8 10 17 21 20 21 23 19 16 17 20 21 22 21 20 19
26 25 24 23 21 16 12 11 10 7 5 4 3 3 3 4 4 2 4 3 1 1 1 1 1 4 6 6 11 14 10 5 2 2 12 18 17 13 11 11 12 11 13 13 10 10 12 15 17 17 14 12 14 13 15 21 16 8 12 16 15 12 12 11 11 10 10 10 10 16 18 12 8 8 13 17 19 20 19 17 16 19 22 22 21 22 20 19
27 25 22 18 15 10 5 4 5 6 4 3 4 3 4 4 2 3 4 2 2 0 1 1 1 3 7 8 9 11 11 8 4 4 11 15 16 13 10 10 11 9 11 13 11 8 12 16 16 14 12 12 15 14 14 19 18 11 12 13 12 10 10 8 9 9 9 10 12 17 21 16 9 8 12 13 14 17 17 16 17 20 22 22 22 22 22 20
24 20 15 11 9 5 2 1 1 4 5 5 3 3 4 3 2 4 2 1 2 0 0 1 1 2 6 9 6 5 8 8 6 7 10 11 13 13 9 8 8 7 8 11 10 7 11 15 12 12 15 13 15 14 13 18 20 12 11 12 10 9 8 7 7 9 9 10 13 17 21 19 13 8 10 12 15 19 19 18 19 19 21 23 23 23 23 21
17 12 10 8 7 5 4 2 1 2 4 6 4 3 4 3 2 4 2 2 3 1 1 1 2 4 7 9 7 5 6 7 8 9 10 10 10 11 10 8 8 8 8 10 10 7 8 13 13 14 16 15 14 13 12 15 17 13 11 12 11 9 8 9 9 9 9 8 10 17 19 16 13 9 8 13 18 20 19 19 21 21 22 24 23 22 22 22
10 8 8 8 9 7 5 2 3 3 2 5 4 4 4 3 2 3 3 3 2 1 1 1 4 7 7 7 6 5 4 5 9 9 11 12 10 11 13 11 12 9 6 10 11 7 7 12 16 15 14 16 16 13 11 13 16 15 13 12 11 10 9 11 11 9 10 6 6 14 15 11 11 11 10 11 16 21 22 23 25 24 24 23 21 21 21 22
5 6 7 7 8 8 6 4 2 2 1 5 4 4 4 5 4 4 5 5 3 2 3 4 6 8 7 4 2 5 5 5 9 9 10 11 9 10 11 12 14 9 5 10 10 8 9 10 14 15 12 16 18 15 12 13 15 15 12 11 10 8 8 9 9 9 11 7 7 13 12 9 8 7 11 11 12 19 23 25 25 23 24 21 19 20 21 22
2 5 6 6 7 7 7 5 2 2 3 4 4 5 4 5 4 4 5 5 3 3 6 8 7 6 5 4 2 6 5 3 9 9 8 10 8 9 9 10 14 10 6 10 8 9 10 9 14 16 13 17 18 15 15 13 12 12 11 10 9 7 6 5 3 5 9 8 8 10 7 6 4 3 6 11 11 15 18 22 22 19 19 20 20 21 22 23
1 4 7 7 7 6 6 5 4 3 4 4 4 5 4 4 3 3 3 3 4 5 8 9 5 4 3 2 4 7 4 2 8 7 7 9 9 10 10 9 13 12 8 9 7 9 9 7 16 18 14 18 19 16 16 13 10 10 10 11 9 6 4 4 2 3 7 8 7 9 7 5 4 3 7 12 12 13 14 16 18 17 19 20 20 21 23 23
3 1 6 9 9 7 5 4 4 2 4 4 5 5 5 4 3 2 2 6 9 7 6 5 1 2 3 0 4 8 7 5 8 6 6 9 7 10 11 9 12 13 10 9 6 8 8 7 15 19 14 17 20 18 17 14 11 10 10 11 10 4 3 5 6 5 8 8 6 10 12 9 6 5 10 14 15 15 14 14 16 16 19 20 19 21 22 22
2 2 4 9 10 7 5 4 2 2 4 4 6 7 5 4 5 4 5 7 8 4 3 4 0 1 2 1 3 8 8 6 8 6 6 7 6 10 13 9 12 14 13 10 6 7 8 6 12 18 15 15 18 17 14 14 16 11 9 9 9 7 5 6 6 7 9 8 6 10 13 10 8 6 11 15 16 15 15 15 15 15 17 19 19 20 21 21
4 3 2 9 9 6 6 5 2 4 5 4 6 6 6 8 11 13 10 8 5 3 3 4 1 2 2 1 2 7 8 6 8 7 6 6 6 11 13 9 11 15 14 11 7 7 8 4 9 16 16 14 14 13 11 12 14 10 8 9 8 7 6 6 5 6 8 8 5 8 11 9 7 7 12 16 17 16 15 14 14 15 17 19 18 19 20 21
4 3 2 9 9 6 6 4 4 6 5 5 6 6 7 9 13 17 14 6 5 4 2 2 2 2 1 1 1 4 6 5 7 7 5 7 7 10 13 11 11 15 15 12 8 6 6 4 7 14 16 14 12 11 12 12 12 9 8 10 10 6 5 6 5 4 6 7 6 6 8 7 7 6 8 13 16 16 16 14 13 14 18 18 18 19 21 22
5 3 2 9 10 7 7 5 5 5 4 5 6 5 8 10 11 17 12 3 5 5 3 3 4 3 1 2 3 4 5 5 7 7 5 8 8 7 12 14 12 13 13 11 9 7 5 4 8 12 12 12 11 12 14 14 13 11 8 9 11 8 5 6 6 5 5 5 5 6 5 6 7 7 7 10 12 14 16 16 13 15 18 18 18 19 21 21
6 5 4 9 11 8 6 4 4 6 4 6 8 7 11 12 10 14 12 1 4 3 3 3 4 3 1 3 3 4 6 5 7 7 5 8 9 6 14 18 15 14 13 8 8 8 4 3 9 12 10 11 13 14 15 16 14 12 10 9 10 9 7 6 6 7 5 2 2 4 4 4 6 5 7 8 8 9 14 16 14 14 18 18 18 19 19 19
6 6 6 10 11 7 5 4 6 7 5 8 12 12 13 10 8 12 13 6 1 1 2 2 3 3 1 2 4 5 6 5 6 8 6 8 9 8 16 21 17 15 12 6 8 9 4 3 8 10 8 10 13 13 13 15 14 12 11 11 11 11 10 7 4 5 6 5 4 4 5 4 5 3 3 4 4 6 9 12 12 13 16 17 18 19 19 20
7 5 5 9 10 7 5 5 6 7 8 12 13 11 10 8 8 11 12 10 6 1 2 1 2 3 1 1 4 5 5 4 6 9 6 6 8 10 18 23 17 13 10 5 6 7 4 4 8 9 9 9 10 10 11 14 14 10 10 12 12 13 15 11 3 2 5 6 4 4 5 4 4 3 2 4 5 7 8 10 12 14 16 17 18 19 20 20
8 4 4 8 7 5 5 4 4 7 10 12 13 12 11 9 10 12 11 11 8 5 2 2 2 3 1 1 4 6 6 6 6 5 4 5 8 12 19 23 17 11 9 5 3 4 1 4 7 9 10 11 10 11 12 13 12 10 12 15 14 16 19 13 5 4 5 4 3 4 4 7 7 6 6 5 7 8 8 10 13 15 17 19 19 20 20 21
7 3 5 8 4 4 4 4 5 7 9 10 11 10 11 12 13 13 10 8 8 10 7 2 2 2 1 1 2 4 6 7 5 2 4 6 8 10 18 23 17 11 9 6 4 3 2 4 8 10 10 9 9 11 13 13 13 13 16 18 16 16 18 13 7 5 5 5 5 4 1 5 6 7 7 6 7 8 9 10 12 14 17 19 20 20 21 22
5 2 5 7 4 4 5 6 8 9 10 11 8 7 10 13 13 11 9 7 9 12 7 2 2 3 4 4 2 3 4 2 2 4 3 7 9 11 17 20 16 10 8 7 6 5 3 5 9 11 12 10 9 11 13 15 15 15 17 18 16 16 18 16 11 6 4 5 6 3 3 3 4 5 5 6 7 8 8 10 12 14 17 19 19 20 22 22
5 2 3 5 4 4 6 8 11 12 13 12 7 6 11 14 12 11 9 8 11 11 6 1 3 7 7 5 2 2 3 0 1 3 1 7 10 11 15 15 13 10 9 8 6 4 3 5 8 9 11 11 9 11 14 14 14 14 14 16 16 17 18 17 15 10 7 6 2 6 5 4 6 6 2 4 6 8 9 10 12 14 17 19 20 21 23 24
6 3 4 5 6 8 9 12 13 13 12 10 6 7 12 13 13 11 7 7 9 9 7 5 8 12 11 6 3 3 2 1 2 3 2 3 10 12 11 9 10 11 10 7 5 4 4 3 6 8 10 10 9 11 15 16 15 14 14 15 16 16 16 16 17 14 11 9 4 5 6 6 6 6 3 4 5 7 9 11 13 15 18 20 21 22 24 25
6 4 7 9 9 10 11 12 11 9 8 7 6 8 11 12 13 13 9 6 7 7 8 9 11 13 12 7 4 3 1 4 4 3 6 1 9 10 6 3 5 9 9 7 4 4 4 2 3 5 8 11 10 11 15 17 16 15 15 15 16 16 15 15 16 14 12 11 7 5 6 3 5 5 3 5 5 7 9 12 14 17 19 21 21 23 24 25
5 4 7 10 8 8 9 9 8 7 6 7 7 9 11 12 14 15 10 6 7 8 9 10 10 11 10 7 5 4 2 6 7 5 7 4 2 3 2 1 3 6 9 8 5 5 5 3 2 5 6 10 12 12 13 15 15 15 17 18 17 16 15 14 14 14 12 12 10 7 6 1 5 4 3 4 5 7 9 12 15 17 20 21 21 22 23 24
8 7 7 7 6 6 7 7 6 7 7 7 10 12 13 14 15 14 8 4 6 9 10 11 10 9 7 5 7 9 9 10 9 6 4 3 2 3 3 1 2 5 6 6 5 5 6 5 4 6 6 9 13 14 12 13 12 11 14 18 18 16 14 14 16 16 13 10 8 6 2 4 5 3 3 4 5 6 8 11 14 17 19 20 20 20 22 24
Wind_Direction
360 357 357 354 353 353 351 350 349 348 348 345 345 346 348 349 347 344 342 342 342 341 338 335 332 330 330 325 327 333 332 334 332 330 320 301 289 268 254 256 260 256 245 242 243 243 244 240 235 221 212 207 211 214 203 200 198 194 212 228 233 235 234 235 236 238 237 234 222 211 217 225 237 231 226 223 230 244 232 213 217 224 233 244 251 211 223 260
354 353 353 351 350 351 349 348 347 346 344 342 342 342 343 343 343 342 341 342 341 340 338 335 333 330 329 324 327 334 335 335 325 319 303 289 292 265 235 247 260 258 248 242 243 246 243 234 224 211 208 210 207 204 200 196 197 201 215 227 231 236 236 235 240 239 229 230 232 233 230 226 238 237 225 224 230 228 226 221 205 213 226 239 245 204 222 257
349 347 349 348 348 348 346 343 342 341 337 337 336 337 339 336 337 337 338 340 338 338 335 335 333 332 332 323 325 337 340 329 313 286 247 285 296 255 221 250 266 265 259 246 245 245 235 229 220 208 210 215 206 199 201 196 198 211 219 228 233 234 238 237 237 231 222 227 237 246 241 230 233 236 227 227 243 234 230 236 209 215 221 216 228 204 213 240
344 344 345 345 343 340 337 334 334 333 330 330 329 329 330 328 329 331 333 334 333 334 333 333 330 332 332 323 328 344 339 317 292 192 199 307 296 257 227 276 283 290 283 256 247 242 231 228 221 210 213 221 211 204 206 198 195 211 219 233 237 232 237 234 229 221 218 227 236 247 246 235 230 230 226 228 245 239 236 245 234 243 232 197 213 213 212 217
341 342 341 340 336 333 331 328 329 330 327 326 324 323 322 321 322 323 327 326 327 327 327 329 327 329 327 322 332 345 333 313 142 145 225 322 308 259 230 261 286 312 309 261 238 232 226 219 213 211 216 223 211 206 211 204 201 217 224 234 239 237 236 222 215 213 215 224 232 242 243 237 231 224 223 228 240 244 247 246 234 252 238 202 223 229 216 205
340 339 338 336 333 329 328 327 328 328 326 325 321 320 319 318 318 317 318 319 320 317 319 322 323 325 321 323 331 336 318 290 96 188 253 290 299 249 228 254 291 322 322 267 227 220 217 209 206 208 212 220 215 208 210 204 204 223 226 228 234 235 230 210 207 211 210 215 223 235 242 237 229 220 221 227 235 245 257 225 217 246 222 204 228 234 217 202
341 339 335 331 329 328 328 328 326 325 324 322 319 319 319 318 317 315 317 320 319 314 314 314 317 319 318 324 326 309 269 266 283 264 258 276 282 240 229 251 292 322 333 277 230 217 212 207 206 207 208 215 216 212 210 205 205 222 230 222 223 221 218 210 207 208 204 212 223 232 238 228 223 227 223 222 232 238 231 180 212 229 210 204 217 226 219 207
338 337 334 331 328 327 326 325 324 324 321 320 319 317 317 316 314 314 318 323 320 317 312 308 313 313 315 325 323 298 266 267 280 271 264 264 264 249 235 257 289 304 325 285 236 224 219 212 210 207 212 216 213 212 206 203 207 218 229 223 216 213 214 213 209 205 201 211 221 224 226 223 229 238 224 217 229 227 206 202 210 209 207 204 207 213 211 203
333 334 334 331 327 324 323 324 325 325 322 320 317 314 313 312 312 313 317 320 318 318 313 308 308 306 313 318 306 294 270 272 288 279 269 262 258 245 240 280 290 282 291 276 245 231 223 219 215 210 223 225 213 209 199 201 212 213 220 220 212 209 209 208 206 203 200 205 211 213 222 229 229 229 223 222 222 205 190 199 199 198 202 202 202 201 200 198
333 332 331 327 324 322 321 324 326 324 320 317 313 311 310 309 310 310 311 314 313 312 309 304 300 299 306 301 288 277 262 282 301 290 274 271 257 233 252 289 288 277 266 260 253 233 223 222 222 220 239 239 216 210 201 204 217 210 213 215 211 209 206 206 207 203 203 206 208 215 225 227 215 211 225 223 208 190 194 202 198 197 202 202 197 195 197 196
333 330 329 326 323 321 321 324 324 321 317 314 310 309 309 308 307 306 307 309 306 305 301 296 293 292 291 281 266 253 263 285 291 284 273 271 262 250 267 277 280 277 252 249 251 233 227 230 240 228 229 233 214 211 211 211 218 206 205 210 209 210 208 210 213 207 205 208 208 217 231 227 218 218 224 213 197 195 203 205 200 200 204 202 196 194 197 196
332 330 328 325 322 320 322 323 319 315 312 310 308 307 307 305 303 303 304 303 301 299 294 290 283 280 279 267 256 251 268 280 283 284 272 263 263 265 271 271 275 270 244 239 243 237 232 231 242 227 218 231 208 206 216 208 208 199 193 206 207 209 214 208 210 209 208 210 202 209 234 231 223 219 216 212 203 198 204 208 202 201 204 201 197 197 197 197
332 329 326 323 319 317 318 317 313 313 313 312 310 306 302 300 299 300 301 297 294 292 291 285 271 267 268 259 256 260 273 280 282 284 278 269 267 270 273 271 272 264 239 227 234 237 229 225 230 229 238 245 205 186 194 191 195 198 195 212 206 207 217 204 203 207 209 214 197 196 229 230 221 216 213 212 206 200 206 212 207 202 203 200 198 198 197 197
330 327 325 322 319 317 317 314 314 317 316 314 310 305 301 299 300 297 293 288 288 290 286 277 265 258 256 257 263 269 276 281 279 278 280 274 264 266 268 266 267 258 233 218 224 232 227 223 227 232 238 241 229 162 167 184 194 198 196 215 210 209 213 200 198 199 202 209 196 199 233 234 221 214 208 206 204 204 210 213 211 205 201 201 199 197 196 197
327 325 323 321 319 317 317 316 314 313 313 313 309 305 302 301 300 291 285 285 288 287 280 272 259 246 256 266 270 271 279 282 275 276 276 254 247 252 250 253 264 253 226 211 215 227 223 215 217 225 221 229 250 221 194 186 191 195 196 209 211 216 209 193 195 196 197 195 191 203 232 236 233 218 197 195 197 202 212 214 211 206 200 200 200 197 194 195
325 323 319 317 317 316 315 315 311 307 310 313 309 306 305 304 300 290 287 286 284 279 270 262 247 238 260 277 267 266 282 276 263 276 255 223 225 237 251 259 264 245 216 204 206 214 208 204 210 217 214 215 225 208 196 190 193 199 205 209 203 207 206 184 190 197 199 190 191 208 227 230 236 217 185 186 190 194 209 213 208 205 200 199 199 194 191 191
320 317 314 313 314 314 314 313 310 308 311 312 310 309 309 308 302 295 292 286 280 272 249 246 244 236 250 265 261 262 269 250 251 258 228 214 220 249 273 264 250 225 202 195 198 200 197 200 204 212 215 211 208 204 202 199 196 195 204 212 203 201 204 185 183 193 199 200 199 207 223 233 227 200 182 186 190 191 204 209 204 204 201 199 198 190 187 189
313 310 313 314 311 309 310 311 311 313 313 312 311 313 316 315 311 302 289 276 260 228 224 223 206 228 249 247 251 259 239 232 244 227 220 220 238 265 271 250 236 205 189 185 190 193 196 198 199 205 209 207 203 203 206 203 198 193 193 204 203 199 204 194 176 182 193 203 207 203 214 226 217 188 186 189 190 194 204 206 203 205 202 196 194 190 186 189
317 314 314 316 316 312 311 313 315 315 314 314 314 320 327 326 319 299 248 213 202 211 248 216 193 225 282 269 249 253 239 234 238 231 228 227 242 265 252 232 225 204 191 185 186 190 195 196 200 205 203 203 201 204 209 210 214 203 190 197 202 193 200 198 175 175 187 198 208 207 209 217 214 200 193 191 192 197 203 204 203 205 204 195 192 192 189 190
324 321 317 319 322 320 317 318 317 315 314 316 319 324 333 328 314 290 227 240 241 249 268 256 229 245 271 274 261 255 254 252 249 243 234 229 236 247 235 214 212 210 202 196 184 188 197 199 205 208 206 203 199 207 211 223 255 214 192 194 198 190 192 195 185 176 186 198 206 208 211 214 216 211 198 193 193 198 202 203 200 199 202 200 199 196 191 191
324 325 324 322 321 321 323 320 316 314 313 314 313 314 324 325 314 315 309 280 257 256 260 259 255 257 263 265 262 260 265 265 249 237 234 229 226 232 225 203 204 212 206 204 189 187 200 208 210 208 208 205 197 206 211 214 239 211 191 189 191 196 192 191 193 178 186 205 206 206 214 216 216 214 201 194 195 199 203 201 197 197 199 202 207 204 194 189
323 323 322 322 322 324 324 317 313 315 315 312 302 299 310 314 303 304 311 292 276 269 260 258 260 260 262 261 258 254 257 260 247 235 227 217 215 220 212 197 205 212 202 203 193 185 202 216 213 204 204 208 198 202 208 208 213 201 190 193 192 197 191 187 196 185 185 207 205 201 213 218 216 215 206 195 196 201 204 205 202 199 198 200 207 205 195 187
324 320 320 325 326 324 318 311 313 318 317 307 295 298 301 305 302 301 301 290 290 283 261 254 256 256 258 258 252 240 240 247 247 237 213 204 214 223 219 204 210 213 201 200 196 191 202 212 210 200 196 203 197 196 202 205 209 205 195 197 197 191 188 187 191 188 186 204 214 202 208 220 215 214 211 198 196 201 204 208 210 206 202 201 204 203 195 191
325 322 321 326 325 318 313 313 319 323 310 300 300 296 293 298 305 308 301 283 287 290 263 246 249 252 253 251 236 222 229 237 242 232 198 196 208 217 225 221 212 213 205 200 199 201 206 204 201 198 194 197 195 191 197 205 209 215 211 204 199 188 192 195 180 182 186 202 219 206 201 221 213 209 208 196 195 199 200 205 210 208 207 206 205 203 199 197
326 324 322 325 322 314 314 320 326 314 301 306 299 291 289 298 305 311 307 284 278 281 245 227 236 242 229 219 210 207 225 235 229 217 185 192 203 206 216 220 215 212 205 201 202 206 210 201 194 195 195 198 202 195 197 203 202 210 216 216 208 188 193 198 173 175 188 198 205 203 204 214 207 205 201 191 195 199 198 201 205 205 206 207 206 204 203 203
327 325 322 320 317 316 319 322 311 298 312 310 289 278 287 303 319 321 308 278 276 274 157 202 211 209 193 192 194 200 224 232 222 217 201 195 202 208 213 210 212 216 206 201 205 211 207 200 194 194 195 197 202 199 195 198 203 205 201 211 217 191 191 197 178 179 198 197 192 202 219 213 197 202 199 194 196 198 199 202 204 204 202 204 206 206 205 204
327 324 321 318 315 317 314 301 291 296 303 299 274 279 288 305 323 328 303 264 267 46 69 219 202 229 229 199 189 196 221 144 190 208 204 195 195 210 224 206 204 221 212 200 204 207 196 193 193 193 194 195 197 196 189 192 206 204 179 192 207 194 191 194 187 191 204 197 188 199 217 230 208 198 194 194 197 198 201 202 201 202 201 203 206 207 205 203
327 325 323 317 312 308 294 282 286 289 279 267 270 271 276 312 323 322 292 281 301 81 223 214 203 237 246 222 206 219 279 336 187 185 189 192 189 199 221 213 205 209 204 203 198 186 184 189 191 190 193 196 194 191 182 188 206 197 166 184 197 202 202 197 195 203 203 201 195 195 205 228 229 195 184 189 195 201 200 198 198 200 202 205 206 206 204 202
331 329 323 315 310 307 292 276 272 268 264 252 242 250 274 305 310 271 250 272 355 81 208 158 233 237 231 227 220 232 256 255 261 120 170 188 189 199 225 219 212 202 194 210 203 172 178 193 195 193 196 196 191 189 179 186 202 180 161 180 189 201 210 204 205 206 201 209 209 194 194 214 231 193 179 187 195 200 197 195 199 201 203 204 203 203 201 199
335 330 323 318 318 319 308 284 257 241 236 215 219 254 287 285 265 256 249 263 338 25 152 195 267 250 231 229 224 228 238 235 225 158 169 183 188 205 228 214 214 206 190 206 206 176 182 193 198 200 202 197 189 187 178 188 199 179 163 178 179 189 203 205 212 208 204 215 217 201 194 205 225 196 184 193 195 195 193 193 199 201 202 202 201 201 199 197
339 335 334 337 340 348 20 27 267 234 207 201 221 255 273 258 228 261 267 292 295 257 112 253 212 226 233 236 235 212 223 232 210 181 178 181 183 198 211 196 203 206 189 196 195 186 188 189 192 200 204 199 187 185 178 188 200 191 173 177 169 175 190 194 206 212 215 216 214 205 195 201 219 209 187 187 189 193 194 194 196 198 199 199 199 198 197 194
347 353 3 16 22 34 56 73 304 272 205 196 215 236 257 269 234 244 263 309 288 266 0 278 208 242 237 237 239 208 215 221 201 195 190 184 184 194 203 191 180 184 185 184 181 182 194 189 182 188 201 202 187 180 176 184 199 199 185 180 173 170 177 189 196 205 214 215 207 199 192 200 220 223 187 174 185 195 196 196 196 196 198 197 195 192 190 190
4 19 26 37 37 40 43 15 318 317 213 181 203 226 246 280 272 252 277 300 292 21 356 248 255 261 238 232 230 192 211 211 191 200 197 191 194 195 203 202 190 192 187 175 171 169 183 187 183 183 194 200 194 183 176 181 192 197 191 184 181 172 175 190 192 195 205 201 190 191 189 202 218 220 207 185 188 195 196 200 199 196 198 195 190 186 183 185
26 30 29 34 27 29 23 356 325 315 204 177 212 242 249 272 287 297 300 296 284 284 289 277 275 263 227 226 227 172 200 203 187 195 191 194 205 196 198 200 197 207 184 168 171 169 172 176 184 188 183 189 199 195 182 180 187 195 197 196 196 186 181 192 189 193 196 176 170 185 192 206 207 206 206 195 190 192 195 201 201 201 202 194 182 180 179 181
43 21 16 12 4 8 7 356 341 291 222 202 244 261 265 283 298 312 311 306 295 283 292 294 289 266 219 188 210 210 221 198 187 197 193 194 206 198 194 192 196 205 179 169 171 173 183 177 177 190 188 184 196 199 187 184 185 191 202 208 209 199 185 186 192 197 187 169 171 185 195 202 173 111 172 181 182 185 189 195 195 194 192 181 171 174 177 179
137 27 19 11 354 344 351 1 355 303 227 222 265 270 278 288 283 310 331 308 290 295 303 301 287 275 261 159 187 204 201 174 183 192 197 199 208 201 196 190 190 198 190 180 168 170 187 168 165 184 195 186 193 199 192 192 185 181 199 211 205 203 199 176 111 107 173 179 175 182 192 186 162 131 162 175 182 177 174 183 185 179 173 170 171 176 178 180
190 0 15 10 356 344 351 8 355 298 214 221 270 283 298 284 250 250 272 286 290 289 297 306 313 292 304 158 177 180 173 174 180 189 195 195 207 203 198 193 186 195 205 196 181 178 180 144 161 183 189 183 193 199 194 206 209 182 189 202 190 199 253 203 166 141 177 191 170 179 194 191 186 179 168 179 187 178 172 178 181 177 174 175 178 181 181 182
256 265 355 359 354 352 353 357 357 233 208 239 271 279 293 290 279 268 252 274 288 257 252 296 326 249 312 21 148 170 178 173 171 194 196 182 196 195 192 190 183 195 212 208 200 192 183 141 161 185 185 174 190 197 194 214 224 208 192 193 190 196 210 200 184 170 184 195 173 182 198 200 201 183 166 182 189 180 179 183 181 179 180 184 185 183 181 179
322 275 336 353 350 354 358 357 333 246 240 273 295 301 313 307 302 301 293 283 274 220 233 293 271 213 280 355 123 163 184 181 171 189 195 183 191 186 188 189 183 195 207 206 203 193 196 172 158 182 184 171 182 196 194 199 211 222 218 200 201 212 204 192 192 184 188 197 185 182 195 203 206 185 172 185 192 186 184 183 182 183 185 188 184 177 176 175
323 282 350 353 346 358 0 336 270 264 271 297 308 307 311 308 303 308 307 278 251 249 238 281 281 244 230 260 233 184 198 202 186 192 195 187 178 175 187 192 185 191 197 201 208 193 199 202 160 171 179 177 184 196 198 190 188 206 215 194 193 207 210 193 193 209 202 197 187 176 188 202 200 188 178 183 189 190 187 183 184 190 189 185 178 173 174 175
333 321 355 340 340 358 346 295 268 301 312 313 316 301 300 303 303 311 315 207 211 277 282 277 280 274 233 228 243 206 205 211 198 200 198 189 187 178 188 193 187 184 186 198 208 192 191 193 165 165 175 186 188 188 197 197 189 198 203 190 190 191 194 185 181 210 220 202 194 182 187 194 182 188 196 187 188 191 190 188 188 191 189 181 176 175 175 174
329 342 336 320 331 347 319 284 324 338 319 318 322 295 289 296 299 315 326 168 181 255 278 277 270 264 246 241 258 224 214 213 191 198 201 193 204 199 182 186 187 179 177 194 199 187 201 202 169 166 173 185 179 178 198 199 192 205 213 204 200 193 201 200 171 184 201 192 186 182 182 157 132 165 203 198 196 193 192 196 192 183 180 175 173 174 172 172
326 337 327 317 326 331 304 313 356 349 337 331 318 291 282 287 294 317 328 333 344 164 210 271 268 251 216 233 269 242 220 213 187 197 205 194 206 203 180 180 184 179 176 192 186 175 196 207 168 161 166 178 171 170 197 200 190 203 212 210 208 198 208 220 163 160 191 183 170 175 185 161 98 100 194 183 172 171 181 191 182 167 166 166 167 168 167 169
323 310 314 330 336 337 330 341 346 334 332 332 321 307 302 297 299 314 324 332 349 41 203 264 278 267 255 261 280 254 219 210 198 204 217 200 186 182 177 178 181 179 177 189 176 165 199 203 165 157 160 167 166 167 192 199 193 200 205 205 208 201 206 215 193 168 197 183 187 192 174 148 102 104 142 156 172 175 172 174 167 159 160 162 164 166 167 169
325 296 312 339 340 343 357 6 337 320 325 328 325 327 333 332 327 325 321 322 341 3 341 253 243 268 321 48 275 264 243 226 212 211 233 200 164 166 175 177 179 176 174 188 169 138 215 212 170 163 164 167 176 180 185 189 191 200 199 197 203 201 201 206 203 202 186 145 181 211 134 103 113 133 137 149 176 182 171 166 164 161 161 163 164 166 169 172
337 334 342 341 329 331 356 15 350 327 321 325 325 330 340 339 335 336 331 327 346 355 346 298 235 264 332 24 253 272 267 235 219 238 217 178 154 162 173 176 179 174 165 184 202 167 191 212 191 188 183 179 185 185 182 182 188 197 194 193 198 199 199 204 207 204 182 153 188 220 55 77 112 126 129 144 165 172 165 163 164 163 163 165 166 166 170 174
338 358 350 338 313 324 351 8 2 339 320 324 324 321 332 333 334 341 341 334 338 339 331 319 28 15 351 339 295 307 317 267 278 309 232 164 144 155 168 175 184 179 166 187 208 203 204 196 193 202 208 204 188 177 179 184 190 194 193 193 194 194 201 210 214 207 195 186 178 144 37 18 50 70 109 149 162 166 167 168 167 165 165 166 166 167 171 174
3 16 347 337 309 317 338 341 338 325 318 325 323 312 327 334 338 341 333 318 323 337 347 327 349 1 348 324 297 322 339 79 39 339 238 157 145 149 161 176 188 182 183 203 205 212 236 200 190 205 216 211 190 173 176 183 188 192 191 192 192 194 201 209 217 220 222 223 145 70 38 351 12 24 52 141 156 165 166 168 167 166 167 168 168 171 173 175
20 2 340 337 310 299 304 310 313 311 317 330 332 331 335 334 335 338 329 311 316 338 360 337 330 347 343 324 343 18 7 5 45 31 12 154 157 154 155 171 184 184 198 219 204 208 250 216 195 206 206 203 196 180 176 179 184 187 190 190 190 195 201 209 218 223 231 251 292 12 344 336 20 26 38 98 135 157 161 168 172 171 172 172 173 176 176 177
24 1 335 325 307 298 304 314 317 313 327 346 345 342 337 330 335 338 322 296 296 320 345 334 326 336 331 323 1 62 167 319 334 1 349 328 158 150 139 149 182 192 210 234 219 208 227 200 195 219 202 193 196 188 178 180 184 184 186 188 186 190 199 209 219 222 228 247 265 297 300 319 58 54 66 99 131 156 163 173 177 177 176 176 177 178 178 177
13 347 325 316 307 311 326 334 333 327 344 1 344 335 333 327 332 334 312 262 255 283 319 325 318 321 313 311 0 32 350 322 320 326 331 319 149 106 65 104 187 200 214 234 232 218 229 230 234 241 206 181 187 191 180 180 186 188 189 190 188 189 193 205 220 225 228 237 240 252 272 9 74 71 96 122 155 167 170 177 179 180 180 180 180 180 179 177
356 349 338 317 293 305 329 334 339 343 356 357 336 328 328 324 328 335 323 264 261 281 303 315 313 312 309 321 354 347 325 311 303 301 302 285 302 348 15 42 276 249 228 233 236 229 239 248 238 225 195 165 178 189 179 175 186 196 196 192 188 188 190 200 218 227 230 235 236 244 288 59 75 97 128 145 172 177 176 179 181 183 183 183 183 180 178 177